{"data":{"norad_id":53244,"intl_designator":"2022-086C","name":"STARLINK-4125","alt_names":[],"object_type":"PAYLOAD","status":"ACTIVE","operator":null,"country":"US","launch_date":"2022-07-24","launch_site_code":"AFETR","launch_vehicle":null,"mission":null,"orbit_class":"UNKNOWN","rcs_meters":null,"size_class":null,"mass_kg":null,"dimensions":null,"purposes":["comms"],"wikipedia_slug":null,"has_3d_model":false,"image_url":null,"decayed_at":null,"tle_current":{"epoch":"2026-09-20T00:45:55.220832Z","epoch_age_seconds":115840,"freshness":"FRESH","line1":"1 53244U 22086C   26263.03188913 -.00000126  00000+0  76945-5 0  9993","line2":"2 53244  53.1605  39.0014 0001144  73.9843 286.1285 15.31698159230758","mean_motion":15.31698159,"eccentricity":0.0001144,"inclination_deg":53.1605,"raan_deg":39.0014,"arg_perigee_deg":73.9843,"mean_anomaly_deg":286.1285,"bstar":7.6945e-6,"rev_number":23075,"period_min":94.01330095873,"perigee_km":469.96197100027,"apogee_km":471.52899531242,"semimajor_km":6848.8824831563,"source":"CELESTRAK","updated_at":"2026-09-20T09:00:40.197982Z"}}}